CW9792 Weather Reports


time (UTC)temp
C
wind
direction
speed
KPH
gust
KPH
rain 1hr
cm
rain 24hr
cm
rain mn
cm
humidity
%
barometer
mb
20260902145033 31 258 0.0 1.6 0.00 0.00 0.00 50 1018.4
20260902144533 30 238 0.0 1.6 0.00 0.00 0.00 50 1018.2
20260902144033 31 240 0.0 0.0 0.00 0.00 0.00 50 1018.2
20260902143530 30 255 0.0 0.0 0.00 0.00 0.00 50 1018.3
20260902143030 30 255 0.0 0.0 0.00 0.00 0.00 53 1018.3
20260902142529 30 243 0.0 0.0 0.00 0.00 0.00 52 1018.3
20260902142028 30 273 0.0 0.0 0.00 0.00 0.00 53 1018.3
20260902141534 30 254 0.0 0.0 0.00 0.00 0.00 53 1018.3
20260902141026 30 221 0.0 0.0 0.00 0.00 0.00 54 1018.2
20260902140525 29 227 0.0 0.0 0.00 0.00 0.00 54 1018.2
20260902140024 29 217 0.0 0.0 0.00 0.00 0.00 55 1018.2
20260902135523 29 221 0.0 0.0 0.00 0.00 0.00 56 1018.3
20260902135022 28 240 0.0 0.0 0.00 0.00 0.00 56 1018.3
20260902134522 28 209 0.0 0.0 0.00 0.00 0.00 58 1018.3
20260902134019 28 211 0.0 0.0 0.00 0.00 0.00 58 1018.4
20260902133520 27 211 0.0 0.0 0.00 0.00 0.00 59 1018.4
20260902133017 27 208 0.0 0.0 0.00 0.00 0.00 58 1018.4
20260902132516 27 183 0.0 0.0 0.00 0.00 0.00 60 1018.4
20260902132013 26 182 0.0 0.0 0.00 0.00 0.00 60 1018.4
20260902131511 26 183 0.0 0.0 0.00 0.00 0.00 61 1018.4
20260902131010 25 183 0.0 0.0 0.00 0.00 0.00 62 1018.4
20260902130510 25 183 0.0 0.0 0.00 0.00 0.00 63 1018.4
20260902130024 25 183 0.0 0.0 0.00 0.00 0.00 65 1018.3
20260902125507 24 182 0.0 0.0 0.00 0.00 0.00 67 1018.3
20260902125006 23 182 0.0 0.0 0.00 0.00 0.00 69 1018.3
20260902124506 23 187 0.0 1.6 0.00 0.00 0.00 70 1018.2
20260902124005 23 187 0.0 1.6 0.00 0.00 0.00 71 1018.2
20260902123504 22 190 0.0 0.0 0.00 0.00 0.00 71 1018.2
20260902123015 22 190 0.0 0.0 0.00 0.00 0.00 71 1018.2
20260902122504 22 190 0.0 0.0 0.00 0.00 0.00 71 1018.1
20260902122005 22 190 0.0 0.0 0.00 0.00 0.00 72 1018.1
20260902121502 22 190 0.0 0.0 0.00 0.00 0.00 71 1018.0
20260902121002 21 190 0.0 0.0 0.00 0.00 0.00 71 1017.9
20260902120502 21 190 0.0 0.0 0.00 0.00 0.00 71 1018.0
20260902120001 21 190 0.0 0.0 0.00 0.00 0.00 71 1017.9
20260902115604 21 190 0.0 0.0 0.00 0.00 0.00 71 1017.8
20260902115100 21 190 0.0 0.0 0.00 0.00 0.00 70 1017.8
20260902114618 21 190 0.0 0.0 0.00 0.00 0.00 70 1017.7
20260902114100 21 190 0.0 0.0 0.00 0.00 0.00 69 1017.6
20260902113557 21 190 0.0 0.0 0.00 0.00 0.00 69 1017.6
20260902113057 21 190 0.0 0.0 0.00 0.00 0.00 69 1017.5
20260902112557 21 190 0.0 0.0 0.00 0.00 0.00 69 1017.5
20260902112056 21 190 0.0 0.0 0.00 0.00 0.00 69 1017.5
20260902111554 21 190 0.0 0.0 0.00 0.00 0.00 69 1017.5
20260902111054 21 190 0.0 0.0 0.00 0.00 0.00 69 1017.5
20260902110554 21 190 0.0 0.0 0.00 0.00 0.00 69 1017.5
20260902105553 21 190 0.0 0.0 0.00 0.00 0.00 68 1017.4
20260902105053 21 190 0.0 0.0 0.00 0.00 0.00 68 1017.4
20260902104557 21 190 0.0 0.0 0.00 0.00 0.00 68 1017.4
20260902104052 21 190 0.0 0.0 0.00 0.00 0.00 68 1017.3
20260902103551 21 190 0.0 0.0 0.00 0.00 0.00 68 1017.2
20260902103101 21 190 0.0 0.0 0.00 0.00 0.00 68 1017.1
20260902102551 21 190 0.0 0.0 0.00 0.00 0.00 68 1017.2
20260902102050 21 190 0.0 0.0 0.00 0.00 0.00 68 1017.0
20260902101550 21 190 0.0 0.0 0.00 0.00 0.00 68 1016.9
20260902101050 21 190 0.0 0.0 0.00 0.00 0.00 67 1017.0
20260902100548 21 190 0.0 0.0 0.00 0.00 0.00 67 1017.0
20260902100049 21 190 0.0 0.0 0.00 0.00 0.00 67 1017.0
20260902095547 21 190 0.0 0.0 0.00 0.00 0.00 67 1016.9
20260902095046 21 190 0.0 0.0 0.00 0.00 0.00 67 1016.8
20260902094547 21 190 0.0 0.0 0.00 0.00 0.00 67 1016.8
20260902094046 21 190 0.0 0.0 0.00 0.00 0.00 67 1016.6
20260902093545 21 190 0.0 0.0 0.00 0.00 0.00 67 1016.7
20260902093045 22 190 0.0 0.0 0.00 0.00 0.00 67 1016.7
20260902092544 22 190 0.0 0.0 0.00 0.00 0.00 66 1016.6
20260902092044 22 190 0.0 0.0 0.00 0.00 0.00 66 1016.6
20260902091543 22 190 0.0 0.0 0.00 0.00 0.00 66 1016.7
20260902091042 22 190 0.0 0.0 0.00 0.00 0.00 66 1016.6
20260902090542 22 190 0.0 0.0 0.00 0.00 0.00 66 1016.6
20260902090042 22 190 0.0 0.0 0.00 0.00 0.00 66 1016.5
20260902085543 22 190 0.0 0.0 0.00 0.00 0.00 66 1016.5
20260902085042 22 190 0.0 0.0 0.00 0.00 0.00 66 1016.6
20260902084541 22 190 0.0 0.0 0.00 0.00 0.00 66 1016.5
20260902084042 22 190 0.0 0.0 0.00 0.00 0.00 66 1016.4
20260902083541 22 190 0.0 0.0 0.00 0.00 0.00 66 1016.5
20260902083043 22 190 0.0 0.0 0.00 0.00 0.00 66 1016.5
20260902082541 22 190 0.0 0.0 0.00 0.00 0.00 66 1016.5
20260902082041 22 190 0.0 0.0 0.00 0.00 0.00 66 1016.4
20260902081545 22 190 0.0 0.0 0.00 0.00 0.00 66 1016.4
20260902081039 22 190 0.0 0.0 0.00 0.00 0.00 65 1016.4
20260902080539 22 190 0.0 0.0 0.00 0.00 0.00 65 1016.4
20260902080048 22 190 0.0 0.0 0.00 0.00 0.00 65 1016.4
20260902075537 22 190 0.0 0.0 0.00 0.00 0.00 65 1016.4
20260902075036 22 190 0.0 0.0 0.00 0.00 0.00 65 1016.3
20260902074537 22 190 0.0 0.0 0.00 0.00 0.00 65 1016.3
20260902074036 22 190 0.0 0.0 0.00 0.00 0.00 64 1016.3
20260902073535 22 190 0.0 0.0 0.00 0.00 0.00 64 1016.3
20260902073034 22 190 0.0 0.0 0.00 0.00 0.00 64 1016.3
20260902072536 23 190 0.0 0.0 0.00 0.00 0.00 64 1016.2
20260902072033 23 190 0.0 0.0 0.00 0.00 0.00 64 1016.2
20260902071539 23 190 0.0 0.0 0.00 0.00 0.00 64 1016.2
20260902071033 23 190 0.0 0.0 0.00 0.00 0.00 64 1016.3
20260902070533 23 190 0.0 0.0 0.00 0.00 0.00 64 1016.3
20260902070033 23 194 0.0 0.0 0.00 0.00 0.00 65 1016.3
20260902065533 23 194 0.0 0.0 0.00 0.00 0.00 65 1016.3
20260902065033 23 194 0.0 0.0 0.00 0.00 0.00 65 1016.3
20260902064532 23 194 0.0 0.0 0.00 0.00 0.00 65 1016.3
20260902064032 23 194 0.0 0.0 0.00 0.00 0.00 64 1016.2
20260902063536 23 194 0.0 0.0 0.00 0.00 0.00 64 1016.2
20260902063032 23 194 0.0 0.0 0.00 0.00 0.00 64 1016.2
20260902062532 23 194 0.0 0.0 0.00 0.00 0.00 64 1016.3
20260902062029 23 194 0.0 0.0 0.00 0.00 0.00 64 1016.2
20260902061529 23 194 0.0 0.0 0.00 0.00 0.00 64 1016.2
20260902061033 23 194 0.0 0.0 0.00 0.00 0.00 64 1016.2
20260902060530 23 194 0.0 0.0 0.00 0.00 0.00 64 1016.2
20260902060027 23 194 0.0 0.0 0.00 0.00 0.00 64 1016.3
20260902055528 23 194 0.0 0.0 0.00 0.00 0.00 64 1016.3
20260902055028 23 194 0.0 0.0 0.00 0.00 0.00 64 1016.3
20260902054531 23 194 0.0 0.0 0.00 0.00 0.00 64 1016.4
20260902054028 23 194 0.0 0.0 0.00 0.00 0.00 64 1016.4
20260902053528 23 194 0.0 0.0 0.00 0.00 0.00 64 1016.4
20260902053027 23 194 0.0 0.0 0.00 0.00 0.00 64 1016.3
20260902052530 23 194 0.0 0.0 0.00 0.00 0.00 64 1016.3
20260902052025 23 194 0.0 0.0 0.00 0.00 0.00 64 1016.3
20260902051527 23 196 0.0 0.0 0.00 0.00 0.00 64 1016.3
20260902051025 23 196 0.0 0.0 0.00 0.00 0.00 64 1016.2
20260902050526 23 196 0.0 0.0 0.00 0.00 0.00 64 1016.2
20260902050025 23 196 0.0 0.0 0.00 0.00 0.00 64 1016.3
20260902045524 24 199 0.0 0.0 0.00 0.00 0.00 64 1016.3
20260902045023 23 201 0.0 1.6 0.00 0.00 0.00 64 1016.3
20260902044523 24 201 0.0 1.6 0.00 0.00 0.00 64 1016.3
20260902044024 24 201 0.0 0.0 0.00 0.00 0.00 64 1016.3
20260902043523 24 201 0.0 0.0 0.00 0.00 0.00 64 1016.2
20260902043023 24 207 0.0 0.0 0.00 0.00 0.00 64 1016.3
20260902042522 24 207 0.0 0.0 0.00 0.00 0.00 64 1016.3
20260902042024 24 207 0.0 0.0 0.00 0.00 0.00 64 1016.3
20260902041521 24 207 0.0 0.0 0.00 0.00 0.00 63 1016.3
20260902041020 24 208 0.0 0.0 0.00 0.00 0.00 63 1016.3
20260902040520 24 209 0.0 0.0 0.00 0.00 0.00 63 1016.3
20260902040021 24 209 0.0 0.0 0.00 0.00 0.00 63 1016.2
20260902035518 24 209 0.0 0.0 0.00 0.00 0.00 63 1016.2
20260902035018 24 209 0.0 0.0 0.00 0.00 0.00 62 1016.3
20260902034519 24 211 0.0 0.0 0.00 0.00 0.00 62 1016.3
20260902034018 25 211 0.0 0.0 0.00 0.00 0.00 62 1016.3
20260902033518 25 211 0.0 0.0 0.00 0.00 0.00 62 1016.3
20260902033018 25 211 0.0 0.0 0.00 0.00 0.00 62 1016.3
20260902032520 25 213 0.0 0.0 0.00 0.00 0.00 63 1016.3
20260902032020 24 213 0.0 0.0 0.00 0.00 0.00 63 1016.4
20260902031517 24 213 0.0 0.0 0.00 0.00 0.00 63 1016.4
20260902031017 24 213 0.0 0.0 0.00 0.00 0.00 63 1016.4
20260902030517 24 213 0.0 0.0 0.00 0.00 0.00 63 1016.4
20260902030019 24 221 0.0 0.0 0.00 0.00 0.00 63 1016.4
20260902025519 24 223 0.0 0.0 0.00 0.00 0.00 63 1016.5
20260902025017 25 223 0.0 0.0 0.00 0.00 0.00 63 1016.5
20260902024518 25 223 0.0 0.0 0.00 0.00 0.00 62 1016.5
20260902024016 25 223 0.0 0.0 0.00 0.00 0.00 62 1016.4
20260902023516 25 223 0.0 0.0 0.00 0.00 0.00 63 1016.4
20260902023034 25 223 0.0 0.0 0.00 0.00 0.00 62 1016.4
20260902022516 25 248 0.0 0.0 0.00 0.00 0.00 62 1016.4
20260902022019 25 248 0.0 0.0 0.00 0.00 0.00 62 1016.3
20260902021527 25 248 0.0 0.0 0.00 0.00 0.00 62 1016.3
20260902021019 25 248 0.0 0.0 0.00 0.00 0.00 62 1016.3
20260902020514 25 248 0.0 0.0 0.00 0.00 0.00 62 1016.3
20260902020016 25 248 0.0 0.0 0.00 0.00 0.00 63 1016.2
20260902015516 25 248 0.0 0.0 0.00 0.00 0.00 63 1016.2
20260902015015 26 248 0.0 0.0 0.00 0.00 0.00 62 1016.2
20260902014515 26 248 0.0 0.0 0.00 0.00 0.00 62 1016.2
20260902014014 26 248 0.0 0.0 0.00 0.00 0.00 62 1016.3
20260902013514 26 248 0.0 0.0 0.00 0.00 0.00 62 1016.2
20260902013017 26 248 0.0 0.0 0.00 0.00 0.00 62 1016.2
20260902012513 26 248 0.0 0.0 0.00 0.00 0.00 61 1016.2
20260902012017 26 248 0.0 0.0 0.00 0.00 0.00 60 1016.0
20260902011513 26 248 0.0 0.0 0.00 0.00 0.00 60 1016.0
20260902011014 27 248 0.0 0.0 0.00 0.00 0.00 60 1015.8
20260902010513 27 248 0.0 0.0 0.00 0.00 0.00 59 1015.8
20260902010013 27 248 0.0 0.0 0.00 0.00 0.00 58 1015.7
20260902005515 28 249 0.0 0.0 0.00 0.00 0.00 57 1015.7
20260902005013 28 249 0.0 0.0 0.00 0.00 0.00 57 1015.6
20260902004515 28 249 0.0 0.0 0.00 0.00 0.00 57 1015.6
20260902004013 28 249 0.0 0.0 0.00 0.00 0.00 56 1015.6
20260902003512 28 249 0.0 0.0 0.00 0.00 0.00 56 1015.6
20260902003012 29 249 0.0 0.0 0.00 0.00 0.00 55 1015.6
20260902002512 30 249 0.0 0.0 0.00 0.00 0.00 54 1015.6
20260902002017 30 249 0.0 0.0 0.00 0.00 0.00 54 1015.6
20260902001511 30 249 0.0 0.0 0.00 0.00 0.00 51 1015.6
20260902001010 31 249 0.0 0.0 0.00 0.00 0.00 50 1015.7
20260902000510 31 249 0.0 0.0 0.00 0.00 0.00 50 1015.7
20260902000012 31 249 0.0 0.0 0.00 0.00 0.00 50 1015.8
20260901235510 31 249 0.0 0.0 0.00 0.00 0.00 51 1015.8
20260901235009 31 249 0.0 0.0 0.00 0.00 0.00 50 1015.8
20260901234510 31 249 0.0 0.0 0.00 0.00 0.00 50 1015.8
20260901234010 31 249 0.0 0.0 0.00 0.00 0.00 49 1015.7
20260901233509 32 249 0.0 0.0 0.00 0.00 0.00 48 1015.8
20260901233010 32 249 0.0 0.0 0.00 0.00 0.00 46 1015.8
20260901232510 33 249 0.0 0.0 0.00 0.00 0.00 44 1015.8
20260901232009 34 249 0.0 0.0 0.00 0.00 0.00 41 1015.8
20260901231510 35 249 0.0 0.0 0.00 0.00 0.00 38 1015.8
20260901231009 34 249 0.0 0.0 0.00 0.00 0.00 39 1015.7
20260901230508 35 249 0.0 0.0 0.00 0.00 0.00 38 1015.8
20260901230008 35 249 0.0 0.0 0.00 0.00 0.00 37 1015.8
20260901225508 34 249 0.0 0.0 0.00 0.00 0.00 38 1015.8
20260901225009 34 249 0.0 0.0 0.00 0.00 0.00 37 1015.8
20260901224508 33 249 0.0 0.0 0.00 0.00 0.00 38 1015.9
20260901224007 33 249 0.0 0.0 0.00 0.00 0.00 38 1016.0
20260901223508 33 271 0.0 0.0 0.00 0.00 0.00 38 1015.8
20260901223015 33 240 0.0 0.0 0.00 0.00 0.00 38 1015.9
20260901222508 34 238 0.0 0.0 0.00 0.00 0.00 38 1015.9
20260901222009 35 242 0.0 0.0 0.00 0.00 0.00 37 1015.8
20260901221507 34 243 0.0 0.0 0.00 0.00 0.00 39 1015.8
20260901221007 33 243 0.0 1.6 0.00 0.00 0.00 38 1015.8
20260901220506 34 220 0.0 1.6 0.00 0.00 0.00 37 1015.8
20260901220007 35 252 0.0 0.0 0.00 0.00 0.00 39 1015.7
20260901215507 33 252 0.0 0.0 0.00 0.00 0.00 38 1015.7
20260901215006 33 263 0.0 0.0 0.00 0.00 0.00 39 1015.7
20260901214506 34 225 0.0 1.6 0.00 0.00 0.00 37 1015.7
20260901214010 34 184 0.0 1.6 0.00 0.00 0.00 37 1015.7
20260901213505 34 232 0.0 0.0 0.00 0.00 0.00 38 1015.8
20260901213011 34 284 0.0 0.0 0.00 0.00 0.00 37 1015.7
20260901212505 34 240 0.0 0.0 0.00 0.00 0.00 38 1015.8
20260901212006 34 260 0.0 0.0 0.00 0.00 0.00 37 1015.7
20260901211505 34 281 0.0 0.0 0.00 0.00 0.00 39 1015.7
20260901211003 34 284 0.0 0.0 0.00 0.00 0.00 38 1015.8
20260901210505 34 207 0.0 0.0 0.00 0.00 0.00 36 1015.8
20260901210004 35 236 0.0 0.0 0.00 0.00 0.00 36 1015.9
20260901205505 35 286 0.0 0.0 0.00 0.00 0.00 38 1015.9
20260901205001 35 263 0.0 0.0 0.00 0.00 0.00 37 1016.0
20260901204501 35 215 0.0 0.0 0.00 0.00 0.00 37 1016.1
20260901204101 35 227 0.0 1.6 0.00 0.00 0.00 36 1016.1
20260901203601 34 293 0.0 1.6 0.00 0.00 0.00 37 1016.2
20260901203109 34 335 0.0 0.0 0.00 0.00 0.00 37 1016.1
20260901202558 34 289 0.0 0.0 0.00 0.00 0.00 37 1016.2
20260901202058 33 220 0.0 0.0 0.00 0.00 0.00 37 1016.3
20260901201558 34 269 0.0 0.0 0.00 0.00 0.00 37 1016.4
20260901201057 34 255 0.0 1.6 0.00 0.00 0.00 37 1016.4
20260901200556 34 254 0.0 1.6 0.00 0.00 0.00 37 1016.5
20260901200057 34 269 0.0 0.0 0.00 0.00 0.00 38 1016.4
20260901195558 33 249 0.0 0.0 0.00 0.00 0.00 37 1016.5
20260901195056 34 283 0.0 0.0 0.00 0.00 0.00 36 1016.7
20260901194555 35 197 0.0 0.0 0.00 0.00 0.00 37 1016.7
20260901194054 35 197 0.0 1.6 0.00 0.00 0.00 35 1016.6
20260901193553 34 192 0.0 1.6 0.00 0.00 0.00 37 1016.7
20260901193106 33 290 0.0 0.0 0.00 0.00 0.00 38 1016.8
20260901192553 33 242 0.0 0.0 0.00 0.00 0.00 38 1016.8
20260901192058 33 213 0.0 1.6 0.00 0.00 0.00 38 1016.9
20260901191552 33 250 0.0 1.6 0.00 0.00 0.00 39 1016.9
20260901191056 33 289 0.0 0.0 0.00 0.00 0.00 40 1017.0
20260901190552 33 274 0.0 0.0 0.00 0.00 0.00 39 1017.0
20260901190054 33 269 0.0 0.0 0.00 0.00 0.00 39 1017.1
20260901185552 33 241 0.0 0.0 0.00 0.00 0.00 38 1017.1
20260901185051 33 288 0.0 0.0 0.00 0.00 0.00 36 1017.2
20260901184551 33 279 0.0 0.0 0.00 0.00 0.00 37 1017.3
20260901184050 34 281 0.0 0.0 0.00 0.00 0.00 39 1017.3
20260901183551 33 281 0.0 0.0 0.00 0.00 0.00 38 1017.4
20260901183058 33 293 0.0 0.0 0.00 0.00 0.00 40 1017.4
20260901182553 33 265 0.0 1.6 0.00 0.00 0.00 40 1017.5
20260901182049 33 233 0.0 1.6 0.00 0.00 0.00 39 1017.5
20260901181550 32 248 0.0 0.0 0.00 0.00 0.00 40 1017.5
20260901181051 32 273 0.0 0.0 0.00 0.00 0.00 40 1017.6
20260901180547 33 279 0.0 0.0 0.00 0.00 0.00 41 1017.6
20260901180048 32 281 0.0 0.0 0.00 0.00 0.00 41 1017.6
20260901175547 32 267 0.0 0.0 0.00 0.00 0.00 41 1017.7
20260901175047 33 279 0.0 0.0 0.00 0.00 0.00 41 1017.7
20260901174547 32 232 0.0 0.0 0.00 0.00 0.00 41 1017.7
20260901174047 33 248 0.0 1.6 0.00 0.00 0.00 41 1017.8
20260901173547 32 288 0.0 1.6 0.00 0.00 0.00 41 1017.9
20260901173055 32 270 0.0 0.0 0.00 0.00 0.00 40 1017.8
20260901172546 33 247 0.0 0.0 0.00 0.00 0.00 42 1017.8
20260901172045 32 276 0.0 0.0 0.00 0.00 0.00 42 1017.9
20260901171545 32 270 0.0 0.0 0.00 0.00 0.00 42 1018.0
20260901171043 32 240 0.0 0.0 0.00 0.00 0.00 44 1017.9
20260901170544 32 243 0.0 0.0 0.00 0.00 0.00 44 1017.9
20260901170057 32 250 0.0 0.0 0.00 0.00 0.00 46 1017.9
20260901165543 32 234 0.0 0.0 0.00 0.00 0.00 44 1018.1
20260901165042 32 296 0.0 0.0 0.00 0.00 0.00 45 1018.1
20260901164542 32 275 0.0 0.0 0.00 0.00 0.00 45 1018.2
20260901164041 32 248 0.0 0.0 0.00 0.00 0.00 46 1018.2
20260901163541 32 238 0.0 0.0 0.00 0.00 0.00 46 1018.3
20260901163041 32 243 0.0 0.0 0.00 0.00 0.00 46 1018.3
20260901162541 32 273 0.0 0.0 0.00 0.00 0.00 47 1018.3
20260901162038 32 241 0.0 0.0 0.00 0.00 0.00 48 1018.4
20260901161539 31 294 0.0 0.0 0.00 0.00 0.00 48 1018.4
20260901161038 31 262 0.0 0.0 0.00 0.00 0.00 48 1018.4
20260901160537 31 243 0.0 0.0 0.00 0.00 0.00 48 1018.5
20260901160038 31 265 0.0 0.0 0.00 0.00 0.00 47 1018.4
20260901155537 31 254 0.0 0.0 0.00 0.00 0.00 49 1018.4
20260901155038 31 246 0.0 1.6 0.00 0.00 0.00 48 1018.5
20260901154538 31 236 0.0 1.6 0.00 0.00 0.00 49 1018.6
20260901154037 31 239 0.0 0.0 0.00 0.00 0.00 49 1018.6
20260901153536 31 188 0.0 0.0 0.00 0.00 0.00 50 1018.6
20260901153036 31 242 0.0 0.0 0.00 0.00 0.00 51 1018.6
20260901152531 31 234 0.0 0.0 0.00 0.00 0.00 51 1018.5
20260901152030 30 258 0.0 0.0 0.00 0.00 0.00 52 1018.5
20260901151530 30 252 0.0 0.0 0.00 0.00 0.00 51 1018.5
20260901151030 30 257 0.0 1.6 0.00 0.00 0.00 52 1018.5
20260901150528 30 210 0.0 1.6 0.00 0.00 0.00 53 1018.5
20260901150031 30 226 0.0 0.0 0.00 0.00 0.00 53 1018.6